Location: Mentone
(34.5413°N, 85.5351°W)
Time: 18:46:37
(UTC-06:00)

Centaur AC-72 - Visible Passes

Search period start: 30 January 2015 00:00
Search period end: 09 February 2015 00:00
Orbit: 1149 x 35207 km, 19.1° (Epoch: 28 January)

Date Brightness Start Highest point End Pass type
(mag) Time Alt. Az. Time Alt. Az. Time Alt. Az.
31 Jan 7.1 11:39:23 10° W 12:28:24 61° S 21:19:43 10° S visible
01 Feb 5.9 08:46:28 10° WSW 09:00:57 57° SSE 18:20:52 10° SSE visible
02 Feb 5.3 05:57:05 10° SSW 06:03:53 27° SE 06:26:58 10° E visible
04 Feb 7.0 11:23:30 10° W 12:09:55 61° S 21:04:10 10° S visible
05 Feb 5.8 08:30:41 10° WSW 08:44:44 56° SSE 18:04:12 10° SSE visible
06 Feb 5.3 05:41:16 10° SSW 05:47:54 27° SE 06:09:24 10° E visible
08 Feb 6.9 11:07:38 10° W 11:51:40 60° S 20:48:38 10° S visible
